Weather History for KEEN - October, 2011

Change the Weather History Date:

Monday, October 10, 2011

  Actual Average Record
Temperature  
Mean Temperature 62 °F -  
Max Temperature 78 °F 62 °F 87 °F (1949)
Min Temperature 46 °F 38 °F 17 °F (1929)
Degree Days  
Heating Degree Days 3    
Growing Degree Days 12 (Base 50)    
Moisture  
Dew Point 51 °F    
Average Humidity 78    
Maximum Humidity 100    
Minimum Humidity 44    
Precipitation  
Precipitation 0.00 in - - ()
Sea Level Pressure  
Sea Level Pressure 30.21 in    
Wind  
Wind Speed 1 mph (NNW)    
Max Wind Speed 14 mph    
Max Gust Speed 18 mph    
Visibility 5 miles    
Events      
Averages and records for this station are not official NWS values.
T = Trace of Precipitation, MM = Missing Value Source: NWS Daily Summary

Daily Weather History Graph

Daily Weather History Graph

Search for Another Location

Airport or City:

Trip Planner

Search our weather history database for the weather conditions in past years. The results will help you decide how hot, cold, wet, or windy it might be!

Date:

Astronomy

Oct. 10, 2011 Rise Set
Actual Time 6:56 AM EDT 6:15 PM EDT
Civil Twilight 6:27 AM EDT 6:43 PM EDT
Nautical Twilight 5:55 AM EDT 7:16 PM EDT
Astronomical Twilight 5:22 AM EDT 7:49 PM EDT
Moon 5:17 PM EDT (10/10) 5:34 AM EDT (10/10)
Length of Visible Light 12h 15m
Length of Day
11h 19m
Waxing Gibbous, 98% of the Moon is Illuminated
Oct 10
Waxing Gibbous
Oct 11
Full
Oct 19
Last Quarter
Oct 26
New
Nov 2
First Quarter

Hourly Weather History & Observations

Time (EDT) Temp. Windchill Dew Point Humidity Pressure Visibility Wind Dir Wind Speed Gust Speed Precip Events Conditions
12:15 AM 48.2 °F - 48.2 °F 100% 30.27 in 0.2 mi Calm Calm - N/A   Mostly Cloudy
12:35 AM 48.2 °F - 48.2 °F 100% 30.27 in 0.2 mi Calm Calm - N/A   Mostly Cloudy
12:55 AM 48.2 °F - 48.2 °F 100% 30.26 in 0.2 mi Calm Calm - N/A   Overcast
1:15 AM 48.2 °F - 46.4 °F 93% 30.26 in 0.5 mi Calm Calm - N/A   Overcast
1:35 AM 48.2 °F - 46.4 °F 93% 30.26 in 0.2 mi Calm Calm - N/A   Overcast
2:15 AM 48.2 °F - 46.4 °F 93% 30.26 in 0.5 mi Calm Calm - N/A   Overcast
2:35 AM 48.2 °F - 46.4 °F 93% 30.25 in 0.2 mi Calm Calm - N/A   Overcast
2:55 AM 48.2 °F - 46.4 °F 93% 30.25 in 0.2 mi Calm Calm - N/A   Overcast
3:15 AM 48.2 °F - 46.4 °F 93% 30.25 in 0.2 mi Calm Calm - N/A   Overcast
3:35 AM 48.2 °F - 46.4 °F 93% 30.25 in 0.2 mi Calm Calm - N/A   Overcast
3:55 AM 48.2 °F - 46.4 °F 93% 30.24 in 0.2 mi Calm Calm - N/A   Overcast
4:35 AM 48.2 °F - 46.4 °F 93% 30.24 in 0.2 mi Calm Calm - N/A   Overcast
4:55 AM 48.2 °F - 46.4 °F 93% 30.25 in 0.2 mi Calm Calm - N/A   Overcast
5:15 AM 46.4 °F - 46.4 °F 100% 30.25 in 0.2 mi Calm Calm - N/A   Overcast
5:35 AM 46.4 °F - 46.4 °F 100% 30.25 in 0.2 mi Calm Calm - N/A   Overcast
5:55 AM 46.4 °F - 46.4 °F 100% 30.25 in 0.2 mi Calm Calm - N/A   Overcast
6:15 AM 46.4 °F - 44.6 °F 93% 30.25 in 0.2 mi Calm Calm - N/A   Overcast
6:35 AM 46.4 °F - 44.6 °F 93% 30.26 in 0.5 mi Calm Calm - N/A   Overcast
6:55 AM 46.4 °F - 44.6 °F 93% 30.25 in 0.2 mi Calm Calm - N/A   Overcast
7:15 AM 46.4 °F - 44.6 °F 93% 30.25 in 0.2 mi Calm Calm - N/A   Overcast
7:35 AM 46.4 °F 45.2 °F 44.6 °F 93% 30.25 in 0.2 mi South 3.5 mph - N/A   Overcast
7:55 AM 46.4 °F - 44.6 °F 93% 30.25 in 0.2 mi Calm Calm - N/A   Overcast
8:15 AM 46.4 °F - 44.6 °F 93% 30.24 in 0.2 mi Calm Calm - N/A   Overcast
8:35 AM 46.4 °F - 44.6 °F 93% 30.25 in 0.2 mi Calm Calm - N/A   Overcast
9:15 AM 48.2 °F - 46.4 °F 93% 30.25 in 0.2 mi Calm Calm - N/A   Overcast
9:35 AM 48.2 °F - 46.4 °F 93% 30.25 in 0.8 mi Calm Calm - N/A   Overcast
9:55 AM 50.0 °F - 48.2 °F 94% 30.24 in 1.5 mi Calm Calm - N/A   Overcast
10:15 AM 51.8 °F - 51.8 °F 100% 30.24 in 5.0 mi NNE 3.5 mph - N/A   Overcast
10:35 AM 53.6 °F - 53.6 °F 100% 30.24 in 10.0 mi Calm Calm - N/A   Partly Cloudy
10:55 AM 55.4 °F - 53.6 °F 94% 30.23 in 10.0 mi Calm Calm - N/A   Clear
11:35 AM 64.4 °F - 55.4 °F 73% 30.21 in 10.0 mi Calm Calm - N/A   Clear
12:15 PM 71.6 °F - 55.4 °F 57% 30.20 in 10.0 mi Calm Calm - N/A   Clear
12:35 PM 73.4 °F - 55.4 °F 53% 30.19 in 10.0 mi SW 3.5 mph - N/A   Clear
12:55 PM 75.2 °F - 55.4 °F 50% 30.19 in 10.0 mi Calm Calm - N/A   Clear
1:15 PM 75.2 °F - 55.4 °F 50% 30.17 in 10.0 mi North 4.6 mph - N/A   Clear
1:35 PM 77.0 °F - 55.4 °F 47% 30.16 in 10.0 mi NW 6.9 mph - N/A   Clear
1:55 PM 78.8 °F - 55.4 °F 44% 30.16 in 10.0 mi NW 9.2 mph - N/A   Clear
2:15 PM 78.8 °F - 55.4 °F 44% 30.15 in 10.0 mi NNW 8.1 mph - N/A   Clear
2:35 PM 78.8 °F - 55.4 °F 44% 30.14 in 10.0 mi NNW 10.4 mph - N/A   Clear
2:55 PM 78.8 °F - 55.4 °F 44% 30.14 in 10.0 mi North 6.9 mph 17.3 mph N/A   Clear
3:15 PM 78.8 °F - 55.4 °F 44% 30.14 in 10.0 mi NW 11.5 mph - N/A   Clear
3:35 PM 78.8 °F - 55.4 °F 44% 30.14 in 10.0 mi NNW 9.2 mph - N/A   Clear
3:55 PM 78.8 °F - 55.4 °F 44% 30.14 in 10.0 mi NW 6.9 mph 17.3 mph N/A   Clear
4:15 PM 78.8 °F - 55.4 °F 44% 30.14 in 10.0 mi NW 9.2 mph - N/A   Clear
4:35 PM 78.8 °F - 55.4 °F 44% 30.13 in 10.0 mi North 13.8 mph 18.4 mph N/A   Clear
4:55 PM 77.0 °F - 55.4 °F 47% 30.13 in 10.0 mi NNW 6.9 mph 18.4 mph N/A   Clear
5:35 PM 75.2 °F - 55.4 °F 50% 30.13 in 10.0 mi NNW 4.6 mph - N/A   Clear
5:55 PM 73.4 °F - 55.4 °F 53% 30.13 in 10.0 mi NW 3.5 mph - N/A   Clear
6:15 PM 71.6 °F - 55.4 °F 57% 30.14 in 10.0 mi Calm Calm - N/A   Clear
6:35 PM 66.2 °F - 57.2 °F 73% 30.14 in 10.0 mi Calm Calm - N/A   Clear
6:55 PM 64.4 °F - 57.2 °F 77% 30.14 in 10.0 mi Calm Calm - N/A   Clear
7:15 PM 62.6 °F - 57.2 °F 82% 30.14 in 10.0 mi Calm Calm - N/A   Clear
7:35 PM 60.8 °F - 55.4 °F 82% 30.15 in 10.0 mi Calm Calm - N/A   Clear
7:55 PM 60.8 °F - 57.2 °F 88% 30.15 in 10.0 mi Calm Calm - N/A   Clear
8:15 PM 60.8 °F - 57.2 °F 88% 30.15 in 10.0 mi Calm Calm - N/A   Clear
8:35 PM 59.0 °F - 55.4 °F 88% 30.15 in 5.0 mi South 3.5 mph - N/A   Clear
8:55 PM 59.0 °F - 55.4 °F 88% 30.16 in 9.0 mi Calm Calm - N/A   Clear
9:15 PM 57.2 °F - 55.4 °F 94% 30.16 in 6.0 mi Calm Calm - N/A   Clear
9:35 PM 57.2 °F - 55.4 °F 94% 30.16 in 5.0 mi Calm Calm - N/A   Clear
9:55 PM 57.2 °F - 55.4 °F 94% 30.17 in 6.0 mi Calm Calm - N/A   Clear
10:15 PM 55.4 °F - 53.6 °F 94% 30.17 in 0.8 mi Calm Calm - N/A   Unknown
10:35 PM 55.4 °F - 53.6 °F 94% 30.17 in 0.5 mi SSW 4.6 mph - N/A   Unknown
10:55 PM 55.4 °F - 53.6 °F 94% 30.17 in 3.0 mi Calm Calm - N/A   Clear
11:35 PM 53.6 °F - 51.8 °F 94% 30.18 in 2.5 mi Calm Calm - N/A   Clear
11:55 PM 53.6 °F - 53.6 °F 100% 30.19 in 1.0 mi Calm Calm - N/A   Clear